1324598427999,0.952631
1324598487999,0.958989
1324598547999,0.966029
1324598607999,0.963892
1324598667999,0.959414
1324598727999,0.960687
1324598787999,0.965955
1324598847999,0.961485
1324598907999,0.964061
1324598967999,0.961441
1324599027999,0.963750
1324599087999,0.962977
1324599147999,0.964134
1324599207999,0.955649
1324599267999,0.962502
1324599327999,0.956383
1324599387999,0.958777
1324599447999,0.958379
1324599507999,0.956099
1324599567999,0.957932
1324599627999,0.952333
1324599687999,0.953732
1324599747999,0.954987
1324599807999,0.953497
1324599867999,0.953142
1324599927999,0.943167
1324599987999,0.948480
1324600047999,0.943503
1324600107999,0.952492
1324600167999,0.948681
1324600227999,0.949540
1324600287999,0.949080
1324600347999,0.946722
1324600407999,0.944731
1324600467999,0.951478
1324600527999,0.939664
1324600587999,0.950988
1324600647999,0.943792
1324600707999,0.951070
1324600767999,0.946452
1324600827999,0.950131
1324600887999,0.948710
1324600947999,0.945993
1324601007999,0.954686
1324601067999,0.944422
1324601127999,0.947123
1324601187999,0.952231
1324601247999,0.950991
1324601307999,0.950779
1324601367999,0.947072
1324601427999,0.945504
1324601487999,0.942837
1324601547999,0.957201
1324601607999,0.948024
1324601667999,0.944454
1324601727999,0.952066
1324601787999,0.951537
1324601847999,0.943073
1324601907999,0.952873
1324601967999,0.947887
1324602028010,0.944793
1324602088010,0.943298
1324602148010,0.946978
1324602208010,0.946171
1324602268010,0.940676
1324602328010,0.952165
1324602388010,0.947175
1324602448010,0.951026
1324602508010,0.956297
1324602568010,0.945402
1324602628010,0.953230
1324602688010,0.944762
1324602748010,0.940231
1324602808010,0.946432
1324602868010,0.940531
1324602928010,0.939342
1324602988010,0.938364
1324603048010,0.947687
1324603108010,0.938782
1324603168010,0.941742
1324603228010,0.945373
1324603288010,0.948942
1324603348010,0.935636
1324603408010,0.935179
1324603468010,0.939633
1324603528010,0.944660
1324603588010,0.947514
1324603648010,0.966182
1324603708010,0.942445
1324603768010,0.936075
1324603828010,0.945713
1324603888010,0.934231
1324603948010,0.938724
1324604008010,0.944192
1324604068010,0.947491
1324604128010,0.932928
1324604188010,0.939873
1324604248010,0.940841
1324604308010,0.945342
1324604368010,0.944122
1324604428010,0.947396
1324604488010,0.948871
1324604548010,0.944845
1324604608010,0.945984
1324604668010,0.948973
1324604728010,0.945763
1324604788010,0.946125
1324604848010,0.944504
1324604908010,0.947287
1324604968010,0.938705
1324605028010,0.942922
1324605088010,0.947834
1324605148010,0.945204
1324605208010,0.944486
1324605268010,0.945581
1324605328010,0.941724
1324605388010,0.956048
1324605448010,0.943521
1324605508010,0.947454
1324605568010,0.946931
1324605628020,0.945020
1324605688020,0.939398
1324605748020,0.948628
1324605808020,0.940439
1324605868020,0.939686
1324605928020,0.943352
1324605988020,0.945562
1324606048020,0.933066
1324606108020,0.940400
1324606168020,0.931402
1324606228020,0.936729
1324606288020,0.944706
1324606348020,0.944562
1324606408020,0.941127
1324606468020,0.948189
1324606528020,0.943343
1324606588020,0.943571
1324606648020,0.939785
1324606708020,0.938865
1324606768020,0.946192
1324606828020,0.939088
1324606888020,0.943349
1324606948020,0.938539
1324607008020,0.942535
1324607068020,0.941316
1324607128020,0.948202
1324607188020,0.944166
1324607248020,0.948767
1324607308020,0.949175
1324607368020,0.944859
1324607428020,0.938705
1324607488020,0.954629
1324607548020,0.953001
1324607608020,0.944336
1324607668020,0.951207
1324607728020,0.952661
1324607788020,0.953762
1324607848020,0.959244
1324607908020,0.954217
1324607968020,0.954177
1324608028020,0.965446
1324608088020,0.964524
1324608148020,0.965831
1324608208020,0.970455
1324608268020,0.964706
1324608328020,0.971008
1324608388020,0.973847
1324608448020,0.971872
1324608508020,0.974582
1324608568020,0.977236
1324608628020,0.978492
1324608688020,0.972430
1324608748020,0.973971
1324608808020,0.984318
1324608868020,0.979710
1324608928020,0.984577
1324608988020,0.985219
1324609048020,0.980352
1324609108020,0.979631
1324609168020,0.984148
1324609228030,0.983062
1324609288030,0.983161
1324609348030,0.991248
1324609408030,0.992282
1324609468030,0.985345
1324609528030,0.984120
1324609588030,0.994489
1324609648030,0.986797
1324609708030,0.997449
1324609768030,0.986976
1324609828030,0.995847
1324609888030,0.994580
1324609948030,0.991508
1324610008030,0.998266
1324610068030,0.997807
1324610128030,0.989441
1324610188030,0.999646
1324610248030,0.998784
1324610308030,0.997530
1324610368030,0.992202
1324610428030,0.994434
1324610488030,1.00548
1324610548030,0.994859
1324610608030,0.990507
1324610668030,0.993488
1324610728030,0.997222
1324610788030,0.996973
1324610848030,0.998392
1324610908030,0.999895
1324610968030,0.995862
1324611028030,0.992097
1324611088030,0.997566
1324611148030,0.993095
1324611208030,0.997247
1324611268030,0.988421
1324611328030,0.982504
1324611388030,0.993019
1324611448030,0.988385
1324611508030,0.977607
1324611568030,0.980580
1324611628030,0.970109
1324611688030,0.980556
1324611748030,0.975683
1324611808030,0.979733
1324611868030,0.975680
1324611928030,0.981879
1324611988030,0.987111
1324612048030,0.991685
1324612108030,0.998977
1324612168030,0.984516
1324612228030,0.991715
1324612288030,0.997467
1324612348030,0.990254
1324612408030,0.981186
1324612468030,0.984413
1324612528030,0.982877
1324612588030,0.981065
1324612648030,0.984714
1324612708030,0.980572
1324612768030,0.986926
1324612828041,0.977289
1324612888041,0.982679
1324612948041,0.972338
1324613008041,0.980380
1324613068041,0.977550
1324613128041,0.979859
1324613188041,0.983766
1324613248041,0.984156
1324613308041,0.975051
1324613368041,0.983907
1324613428041,0.981725
1324613488041,0.989432
1324613548041,0.979680
1324613608041,0.997995
1324613668041,1.00067
1324613728041,1.01467
1324613788041,1.01712
1324613848041,1.02756
1324613908041,1.02236
1324613968041,1.01817
1324614028041,1.02886
1324614088041,1.02562
1324614148041,1.01776
1324614208041,1.02914
1324614268041,1.03156
1324614328041,1.02034
1324614388041,1.01313
1324614448041,1.02551
1324614508041,1.01956
1324614568041,1.02029
1324614628041,1.01909
1324614688041,1.02530
1324614748041,1.02397
1324614808041,1.01963
1324614868041,1.01804
1324614928041,1.02006
1324614988041,1.01199
1324615048041,1.01727
1324615108041,1.01317
1324615168041,1.00928
1324615228041,1.00370
1324615288041,1.00658
1324615348041,1.00195
1324615408041,0.995308
1324615468041,1.00069
1324615528041,0.984919
1324615588041,0.996311
1324615648041,0.983986
1324615708041,0.992367
1324615768041,0.981468
1324615828041,0.978508
1324615888041,0.980382
1324615948041,0.974067
1324616008041,0.981242
1324616068041,0.974237
1324616128041,0.976000
1324616188041,0.973299
1324616248041,0.979514
1324616308041,0.977611
1324616368041,0.985425
1324616428051,0.984557
1324616488051,0.974393
1324616548051,0.981892
1324616608051,0.982371
1324616668051,0.978554
1324616728051,0.977730
1324616788051,0.969571
1324616848051,0.971340
1324616908051,0.970416
1324616968051,0.971773
1324617028051,0.966464
1324617088051,0.965364
1324617148051,0.965912
1324617208051,0.961047
1324617268051,0.960755
1324617328051,0.963053
1324617388051,0.954814
1324617448051,0.964469
1324617508051,0.955103
1324617568051,0.964697
1324617628051,0.955207
1324617688051,0.955338
1324617748051,0.958493
1324617808051,0.954676
1324617868051,0.950361
1324617928051,0.955038
1324617988051,0.958023
1324618048051,0.954995
1324618108051,0.954331
1324618168051,0.959853
1324618228051,0.946677
1324618288051,0.945839
1324618348051,0.955569
1324618408051,0.951676
1324618468051,0.953952
1324618528051,0.952437
1324618588051,0.946739
1324618648051,0.951303
1324618708051,0.954232
1324618768051,0.949031
1324618828051,0.950315
1324618888051,0.946574
1324618948051,0.947878
1324619008051,0.949830
1324619068051,0.946833
1324619128051,0.951452
1324619188051,0.940894
1324619248051,0.948754
1324619308051,0.944794
1324619368051,0.949944
1324619428051,0.939130
1324619488051,0.953780
1324619548051,0.948230
1324619608051,0.949826
1324619668051,0.945926
1324619728051,0.949071
1324619788051,0.943042
1324619848051,0.946788
1324619908051,0.945889
1324619968051,0.941197
1324620028062,0.943428
1324620088062,0.947578
1324620148062,0.944777
1324620208062,0.942368
1324620268062,0.949049
1324620328062,0.939994
1324620388062,0.945046
1324620448062,0.943752
1324620508062,0.943777
1324620568062,0.945677
1324620628062,0.939848
1324620688062,0.942203
1324620748062,0.938358
1324620808062,0.945524
1324620868062,0.937199
1324620928062,0.938865
1324620988062,0.945087
1324621048062,0.952570
1324621108062,0.944807
1324621168062,0.940430
1324621228062,0.945893
1324621288062,0.945319
1324621348062,0.941244
1324621408062,0.937076
1324621468062,0.944860
1324621528062,0.941468
1324621588062,0.938223
1324621648062,0.939249
1324621708062,0.928859
1324621768062,0.944452
1324621828062,0.940905
1324621888062,0.945915
1324621948062,0.941597
1324622008062,0.937295
1324622068062,0.945108
1324622128062,0.947388
1324622188062,0.942387
1324622248062,0.947749
1324622308062,0.943161
1324622368062,0.940426
1324622428062,0.948585
1324622488062,0.943064
1324622548062,0.937495
1324622608062,0.940689
1324622668062,0.948374
1324622728062,0.937891
1324622788062,0.942180
1324622848062,0.940913
1324622908062,0.945208
1324622968062,0.940166
1324623028062,0.941311
1324623088062,0.938339
1324623148062,0.936743
1324623208062,0.942180
1324623268062,0.943067
1324623328062,0.942454
1324623388062,0.937921
1324623448062,0.945034
1324623508062,0.939247
1324623568062,0.942147
1324623628073,0.942370
1324623688073,0.935900
1324623748073,0.939933
1324623808073,0.955850
1324623868073,0.946979
1324623928073,0.947344
1324623988073,0.943644
1324624048073,0.943482
1324624108073,0.945383
1324624168073,0.946704
1324624228073,0.949673
1324624288073,0.948970
1324624348073,0.942915
1324624408073,0.943862
1324624468073,0.948091
1324624528073,0.945981
1324624588073,0.939862
1324624648073,0.938513
1324624708073,0.942677
1324624768073,0.940434
1324624828073,0.944248
1324624888073,0.949989
1324624948073,0.947613
1324625008073,0.940540
1324625068073,0.940062
1324625128073,0.932738
1324625188073,0.941193
1324625248073,0.943619
1324625308073,0.941754
1324625368073,0.941763
1324625428073,0.943647
1324625488073,0.934301
1324625548073,0.930392
1324625608073,0.937711
1324625668073,0.943419
1324625728073,0.946507
1324625788073,0.932847
1324625848073,0.932215
1324625908073,0.935422
1324625968073,0.933779
1324626028073,0.941118
1324626088073,0.944136
1324626148073,0.937674
1324626208073,0.940226
1324626268073,0.934379
1324626328073,0.937477
1324626388073,0.937570
1324626448073,0.946241
1324626508073,0.934366
1324626568073,0.938235
1324626628073,0.941452
1324626688073,0.942654
1324626748073,0.939365
1324626808073,0.939900
1324626868073,0.929969
1324626928073,0.945589
1324626988073,0.929958
1324627048073,0.938283
1324627108073,0.948243
1324627168073,0.947720
1324627228084,0.940695
1324627288084,0.925839
1324627348084,0.947569
1324627408084,0.938823
1324627468084,0.933525
1324627528084,0.940999
1324627588084,0.942426
1324627648084,0.945538
1324627708084,0.941648
1324627768084,0.945612
1324627828084,0.951498
1324627888084,0.945453
1324627948084,0.951702
1324628008084,0.945787
1324628068084,0.949800
1324628128084,0.951932
1324628188084,0.942613
1324628248084,0.947932
1324628308084,0.947730
1324628368084,0.945496
1324628428084,0.943493
1324628488084,0.951151
1324628548084,0.948269
1324628608084,0.941587
1324628668084,0.944350
1324628728084,0.947001
1324628788084,0.943188
1324628848084,0.938083
1324628908084,0.947516
1324628968084,0.957440
1324629028084,0.948356
1324629088084,0.942010
1324629148084,0.947937
1324629208084,0.942089
1324629268084,0.960749
1324629328084,0.951669
1324629388084,0.946731
1324629448084,0.953473
1324629508084,0.948695
1324629568084,0.944422
1324629628084,0.950221
1324629688084,0.948698
1324629748084,0.959091
1324629808084,0.954812
1324629868084,0.951468
1324629928084,0.952736
1324629988084,0.951919
1324630048084,0.956359
1324630108084,0.949709
1324630168084,0.956749
1324630228084,0.956257
1324630288084,0.958147
1324630348084,0.950913
1324630408084,0.957806
1324630468084,0.955690
1324630528084,0.962694
1324630588084,0.960553
1324630648084,0.964371
1324630708084,0.963756
1324630768084,0.955641
1324630828096,0.972961
1324630888096,0.971200
1324630948095,0.966397
1324631008095,0.968839
1324631068095,0.968733
1324631128095,0.971466
1324631188095,0.971512
1324631248095,0.961725
1324631308095,0.977727
1324631368095,0.970546
1324631428095,0.975953
1324631488095,0.973877
1324631548095,0.989470
1324631608095,0.980452
1324631668095,0.973622
1324631728095,0.981072
1324631788095,0.982850
1324631848095,0.982467
1324631908095,0.973304
1324631968095,0.981586
1324632028095,0.984266
1324632088096,0.983296
1324632148096,0.987894
1324632208096,0.987939
1324632268096,0.994432
1324632328095,0.992265
1324632388095,0.998967
1324632448095,0.996839
1324632508095,0.995270
1324632568095,0.991136
1324632628095,0.997696
1324632688095,0.994066
1324632748095,1.00101
1324632808095,1.00154
1324632868095,0.986523
1324632928095,0.998224
1324632988095,0.985269
1324633048095,0.981039
1324633108095,0.991543
1324633168095,0.991239
1324633228095,0.986303
1324633288095,0.984490
1324633348095,0.984824
1324633408095,0.971316
1324633468096,0.977586
1324633528096,0.973703
1324633588096,0.974269
1324633648095,0.970573
1324633708095,0.968580
1324633768095,0.969208
1324633828095,0.959608
1324633888095,0.970643
1324633948095,0.955464
1324634008095,0.964585
1324634068095,0.963632
1324634128095,0.963150
1324634188095,0.947587
1324634248095,0.961545
1324634308095,0.957743
1324634368095,0.956253
1324634428107,0.955753
1324634488107,0.951017
1324634548107,0.950498
1324634608107,0.950403
1324634668107,0.942038
1324634728107,0.948510
1324634788107,0.951135
1324634848107,0.951343
1324634908107,0.949856
1324634968107,0.950349
1324635028107,0.955791
1324635088107,0.963114
1324635148107,0.966632
1324635208107,0.974094
1324635268107,0.980892
1324635328107,0.985122
1324635388107,0.980335
1324635448107,0.985170
1324635508107,0.975183
1324635568107,0.960140
1324635628107,0.964974
1324635688107,0.959960
1324635748107,0.955649
1324635808107,0.952374
1324635868107,0.958120
1324635928107,0.961550
1324635988107,0.948494
1324636048107,0.953328
1324636108107,0.948227
1324636168107,0.953458
1324636228107,0.952919
1324636288107,0.952554
1324636348107,0.956273
1324636408107,0.947725
1324636468107,0.946395
1324636528107,0.946019
1324636588107,0.952240
1324636648107,0.949206
1324636708107,0.944316
1324636768107,0.949992
1324636828107,0.940509
1324636888107,0.943918
1324636948107,0.951294
1324637008107,0.946301
1324637068107,0.945028
1324637128107,0.946733
1324637188107,0.949652
1324637248107,0.955682
1324637308107,0.953166
1324637368107,0.955609
1324637428107,0.943661
1324637488107,0.945134
1324637548107,0.948234
1324637608107,0.948862
1324637668107,0.932469
1324637728107,0.942607
1324637788107,0.939749
1324637848107,0.943491
1324637908107,0.949096
1324637968107,0.944267
1324638028119,0.944768
1324638088119,0.946921
1324638148119,0.942595
1324638208119,0.938287
1324638268119,0.954862
1324638328119,0.947898
1324638388119,0.931602
1324638448119,0.941168
1324638508119,0.947012
1324638568119,0.936629
1324638628119,0.940182
1324638688119,0.945469
1324638748119,0.941629
1324638808119,0.936511
1324638868119,0.937148
1324638928119,0.938155
1324638988119,0.944523
1324639048119,0.947200
1324639108119,0.942628
1324639168119,0.939201
1324639228119,0.944825
1324639288119,0.939047
1324639348119,0.942797
1324639408119,0.942043
1324639468119,0.932547
1324639528119,0.941865
1324639588119,0.939225
1324639648119,0.935012
1324639708119,0.934583
1324639768119,0.939478
1324639828119,0.939110
1324639888119,0.945410
1324639948119,0.945839
1324640008119,0.934988
1324640068119,0.945879
1324640128119,0.931775
1324640188119,0.937444
1324640248119,0.941287
1324640308119,0.934476
1324640368119,0.937444
1324640428119,0.940548
1324640488119,0.930846
1324640548119,0.937521
1324640608119,0.935623
1324640668119,0.937747
1324640728119,0.941868
1324640788119,0.936910
1324640848119,0.941411
1324640908119,0.945368
1324640968119,0.937739
1324641028119,0.942469
1324641088119,0.955984
1324641148119,0.941970
1324641208119,0.948275
1324641268119,0.944454
1324641328119,0.940995
1324641388119,0.939776
1324641448119,0.940909
1324641508119,0.935052
1324641568119,0.941534
1324641628131,0.946857
1324641688131,0.940120
1324641748131,0.945157
1324641808131,0.933544
1324641868131,0.945600
1324641928131,0.942139
1324641988131,0.946651
1324642048131,0.944394
1324642108131,0.939109
1324642168131,0.950962
1324642228131,0.944869
1324642288131,0.939936
1324642348131,0.946361
1324642408131,0.947590
1324642468131,0.959156
1324642528131,0.938784
1324642588131,0.944119
1324642648131,0.943079
1324642708131,0.939661
1324642768131,0.949563
1324642828131,0.944529
1324642888131,0.944957
1324642948131,0.948584
1324643008131,0.948604
1324643068131,0.952778
1324643128131,0.952172
1324643188131,0.945562
1324643248131,0.938489
1324643308131,0.938211
1324643368131,0.943328
1324643428131,0.946756
1324643488131,0.937330
1324643548131,0.948439
1324643608131,0.939728
1324643668131,0.940864
1324643728131,0.946349
1324643788131,0.950350
1324643848131,0.942008
1324643908131,0.949638
1324643968131,0.948258
1324644028131,0.939910
1324644088131,0.940627
1324644148131,0.947431
1324644208131,0.947985
1324644268131,0.938138
1324644328131,0.944057
1324644388131,0.949676
1324644448131,0.945769
1324644508131,0.947691
1324644568131,0.958373
1324644628131,0.948367
1324644688131,0.955413
1324644748131,0.950927
1324644808131,0.948418
1324644868131,0.948997
1324644928131,0.947262
1324644988131,0.949859
1324645048131,0.952022
1324645108131,0.951698
1324645168131,0.951857
1324645228143,0.952080
1324645288143,0.952379
1324645348143,0.951571
1324645408143,0.950281
1324645468143,0.952119
1324645528143,0.952033
1324645588143,0.947375
1324645648143,0.952097
1324645708143,0.946457
1324645768143,0.949168
1324645828143,0.950241
1324645888143,0.950360
1324645948143,0.948227
1324646008143,0.942993
1324646068143,0.951382
1324646128143,0.953111
1324646188143,0.954096
1324646248143,0.956025
1324646308143,0.950178
1324646368143,0.951616
1324646428143,0.952912
1324646488143,0.953675
1324646548143,0.943487
1324646608143,0.952621
1324646668143,0.947804
1324646728143,0.951642
1324646788143,0.945880
1324646848143,0.958294
1324646908143,0.959653
1324646968143,0.955333
1324647028143,0.965700
1324647088143,0.955822
1324647148143,0.954310
1324647208143,0.948182
1324647268143,0.958550
1324647328143,0.954190
1324647388143,0.952045
1324647448143,0.958016
1324647508143,0.950497
1324647568143,0.957265
1324647628143,0.957531
1324647688143,0.939072
1324647748143,0.951156
1324647808143,0.949933
1324647868143,0.941147
1324647928143,0.949119
1324647988143,0.947266
1324648048143,0.956582
1324648108143,0.947436
1324648168143,0.943628
1324648228143,0.942798
1324648288143,0.942585
1324648348143,0.947542
1324648408143,0.947273
1324648468143,0.941213
1324648528143,0.946366
1324648588143,0.933096
1324648648143,0.943388
1324648708143,0.939211
1324648768143,0.945573
1324648828154,0.939558
1324648888154,0.943208
1324648948154,0.943060
1324649008154,0.939062
1324649068154,0.943064
1324649128154,0.937499
1324649188154,0.949134
1324649248154,0.942213
1324649308154,0.941410
1324649368154,0.946143
1324649428154,0.941901
1324649488155,0.944955
1324649548154,0.945067
1324649608154,0.944330
1324649668154,0.944111
1324649728154,0.939654
1324649788154,0.941514
1324649848154,0.948849
1324649908154,0.943635
1324649968154,0.944401
1324650028154,0.945587
1324650088154,0.939188
1324650148154,0.946402
1324650208154,0.941424
1324650268154,0.943986
1324650328154,0.941366
1324650388154,0.938151
1324650448154,0.939838
1324650508154,0.944259
1324650568154,0.939302
1324650628154,0.934577
1324650688154,0.934182
1324650748154,0.934011
1324650808154,0.944247
1324650868154,0.937075
1324650928154,0.944598
1324650988154,0.934866
1324651048154,0.943547
1324651108154,0.943212
1324651168154,0.935531
1324651228154,0.940045
1324651288154,0.944156
1324651348154,0.934221
1324651408154,0.941411
1324651468154,0.940022
1324651528154,0.937014
1324651588154,0.940591
1324651648154,0.936235
1324651708154,0.938062
1324651768154,0.946309
1324651828154,0.940771
1324651888154,0.940137
1324651948154,0.939438
1324652008154,0.941423
1324652068154,0.936641
1324652128154,0.943868
1324652188155,0.935625
1324652248154,0.942423
1324652308154,0.939188
1324652368154,0.943477
1324652428166,0.935832
1324652488166,0.936118
1324652548166,0.946752
1324652608166,0.932859
1324652668166,0.938674
1324652728166,0.935287
1324652788166,0.938425
1324652848166,0.933316
1324652908166,0.939669
1324652968166,0.944070
1324653028166,0.939929
1324653088166,0.937051
1324653148166,0.932527
1324653208166,0.945126
1324653268166,0.938992
1324653328166,0.933939
1324653388166,0.937418
1324653448166,0.937835
1324653508166,0.946054
1324653568166,0.939233
1324653628166,0.934839
1324653688166,0.937181
1324653748166,0.933372
1324653808166,0.942432
1324653868166,0.939888
1324653928166,0.933888
1324653988166,0.938870
1324654048166,0.932291
1324654108166,0.941719
1324654168166,0.939374
1324654228166,0.934703
1324654288166,0.938444
1324654348166,0.946373
1324654408166,0.945477
1324654468166,0.941052
1324654528166,0.932109
1324654588166,0.941613
1324654648166,0.946143
1324654708166,0.933844
1324654768166,0.941253
1324654828166,0.939313
1324654888166,0.948352
1324654948166,0.942837
1324655008166,0.945740
1324655068166,0.952050
1324655128166,0.946586
1324655188166,0.944025
1324655248166,0.960204
1324655308166,0.951708
1324655368166,0.940322
1324655428166,0.948563
1324655488166,0.951756
1324655548166,0.953074
1324655608166,0.948610
1324655668166,0.945981
1324655728166,0.952122
1324655788166,0.955639
1324655848166,0.957110
1324655908166,0.951753
1324655968166,0.952894
1324656028178,0.948649
1324656088178,0.958730
1324656148178,0.958918
1324656208178,0.956816
1324656268178,0.958860
1324656328178,0.955334
1324656388178,0.956656
1324656448178,0.958194
1324656508178,0.957442
1324656568178,0.957905
1324656628178,0.956824
1324656688178,0.945725
1324656748178,0.956941
1324656808178,0.950407
1324656868178,0.955953
1324656928178,0.953188
1324656988178,0.946173
1324657048178,0.952219
1324657108178,0.952339
1324657168178,0.955849
1324657228178,0.947718
1324657288178,0.942428
1324657348178,0.949894
1324657408178,0.952748
1324657468178,0.945729
1324657528178,0.947161
1324657588178,0.944452
1324657648178,0.952075
1324657708178,0.947397
1324657768178,0.944571
1324657828178,0.939292
1324657888178,0.940640
1324657948178,0.943893
1324658008178,0.936592
1324658068178,0.942335
1324658128178,0.948441
1324658188178,0.940439
1324658248178,0.941671
1324658308178,0.945576
1324658368178,0.940402
1324658428178,0.936067
1324658488178,0.943275
1324658548178,0.941864
1324658608178,0.947490
1324658668178,0.955633
1324658728178,0.950618
1324658788178,0.946785
1324658848178,0.950544
1324658908178,0.942841
1324658968178,0.939269
1324659028178,0.949812
1324659088178,0.951720
1324659148178,0.950471
1324659208178,0.953285
1324659268178,0.951935
1324659328178,0.950638
1324659388178,0.951133
1324659448178,0.949267
1324659508178,0.949128
1324659568178,0.947458
1324659628189,0.948734
1324659688189,0.951960
1324659748189,0.953129
1324659808189,0.958844
1324659868189,0.959376
1324659928189,0.964406
1324659988189,0.955171
1324660048189,0.966182
1324660108189,0.959054
1324660168189,0.959516
1324660228189,0.957581
1324660288189,0.962573
1324660348189,0.956630
1324660408189,0.961821
1324660468189,0.954788
1324660528189,0.960204
1324660588189,0.965319
1324660648189,0.958566
1324660708189,0.960086
1324660768189,0.958622
1324660828189,0.956971
1324660888189,0.963751
1324660948189,0.960892
1324661008189,0.959922